GW0587 Weather Reports


Display with metric or nautical units.
time (UTC)temp
F
wind
direction
speed
MPH
gust
MPH
rain 1hr
in
rain 24hr
in
rain mn
in
humidity
%
barometer
mb
20260906171557 100 252 1.0 8.0 0.00 0.00 0.00 46 1013.2
20260906170108 101 17 1.0 6.0 0.00 0.00 0.00 47 1013.3
20260906164551 99 290 0.0 3.0 0.00 0.00 0.00 49 1013.5
20260906163056 98 17 2.0 6.0 0.00 0.00 0.00 49 1013.5
20260906161557 98 28 1.0 5.0 0.00 0.00 0.00 49 1013.5
20260906160057 97 0 1.0 4.0 0.00 0.00 0.00 50 1013.5
20260906154549 97 53 0.0 3.0 0.00 0.00 0.00 50 1013.6
20260906153101 96 360 0.0 3.0 0.00 0.00 0.00 55 1013.5
20260906151601 94 126 0.0 5.0 0.00 0.00 0.00 57 1013.6
20260906150108 94 218 0.0 2.0 0.00 0.00 0.00 58 1013.6
20260906144548 92 0 0.0 2.0 0.00 0.00 0.00 60 1013.7
20260906143051 92 0 0.0 2.0 0.00 0.00 0.00 60 1013.8
20260906141558 92 0 0.0 0.0 0.00 0.00 0.00 62 1013.9
20260906140058 90 0 0.0 2.0 0.00 0.00 0.00 63 1013.8
20260906134548 88 96 0.0 3.0 0.00 0.00 0.00 67 1014.1
20260906133114 86 59 1.0 7.0 0.00 0.00 0.00 69 1014.2
20260906131546 85 0 1.0 10.0 0.00 0.00 0.00 71 1014.1
20260906130105 83 0 0.0 3.0 0.00 0.00 0.00 75 1014.3
20260906124557 81 52 0.0 4.0 0.00 0.00 0.00 80 1014.2
20260906123050 79 0 0.0 4.0 0.00 0.00 0.00 84 1014.1
20260906121547 78 0 0.0 0.0 0.00 0.00 0.00 87 1013.8
20260906120051 78 0 0.0 0.0 0.00 0.00 0.00 86 1013.8
20260906114554 78 0 0.0 0.0 0.00 0.00 0.00 86 1013.4
20260906113052 78 0 0.0 0.0 0.00 0.00 0.00 86 1013.1
20260906111608 78 0 0.0 0.0 0.00 0.00 0.00 85 1013.0
20260906110047 78 0 0.0 0.0 0.00 0.00 0.00 85 1013.1
20260906104556 78 0 0.0 0.0 0.00 0.00 0.00 85 1012.8
20260906103048 78 0 0.0 0.0 0.00 0.00 0.00 85 1012.7
20260906101548 78 0 0.0 0.0 0.00 0.00 0.00 84 1012.4
20260906100058 78 0 0.0 0.0 0.00 0.00 0.00 85 1012.4
20260906094554 78 0 0.0 0.0 0.00 0.00 0.00 85 1012.4
20260906093050 78 0 0.0 0.0 0.00 0.00 0.00 84 1012.3
20260906091559 79 0 0.0 0.0 0.00 0.00 0.00 84 1012.1
20260906090057 79 0 0.0 0.0 0.00 0.00 0.00 83 1012.2
20260906084549 79 0 0.0 0.0 0.00 0.00 0.00 82 1012.2
20260906083054 80 0 0.0 0.0 0.00 0.00 0.00 82 1012.2
20260906081600 80 0 0.0 0.0 0.00 0.00 0.00 82 1012.3
20260906074554 80 0 0.0 0.0 0.00 0.00 0.00 81 1012.3
20260906073054 81 0 0.0 0.0 0.00 0.00 0.00 80 1012.2
20260906071551 81 0 0.0 0.0 0.00 0.00 0.00 80 1012.3
20260906070059 81 0 0.0 0.0 0.00 0.00 0.00 80 1012.3
20260906064554 81 0 0.0 5.0 0.00 0.00 0.00 80 1012.3
20260906063049 81 0 0.0 0.0 0.00 0.00 0.00 80 1012.3
20260906061552 81 0 0.0 0.0 0.00 0.00 0.00 80 1012.3
20260906060047 81 0 0.0 0.0 0.00 0.00 0.00 79 1012.5
20260906054603 81 0 0.0 0.0 0.00 0.00 0.00 78 1012.6
20260906053058 81 0 0.0 0.0 0.00 0.00 0.00 77 1012.4
20260906051606 82 0 0.0 0.0 0.00 0.00 0.00 76 1012.4
20260906050058 82 0 0.0 0.0 0.00 0.00 0.00 76 1012.4
20260906044558 82 0 0.0 0.0 0.00 0.00 0.00 76 1012.5
20260906043048 82 0 0.0 0.0 0.00 0.00 0.00 74 1012.3
20260906041551 82 0 0.0 0.0 0.00 0.00 0.00 74 1012.3
20260906040134 83 0 0.0 0.0 0.00 0.00 0.00 74 1012.4
20260906034601 83 0 0.0 0.0 0.00 0.00 0.00 73 1012.3
20260906033102 84 0 0.0 0.0 0.00 0.00 0.00 73 1012.4
20260906031546 84 0 0.0 0.0 0.00 0.00 0.00 72 1012.2
20260906030057 84 0 0.0 0.0 0.00 0.00 0.00 71 1012.3
20260906024605 85 0 0.0 0.0 0.00 0.00 0.00 70 1012.2
20260906023057 85 0 0.0 0.0 0.00 0.00 0.00 70 1012.1
20260906021605 85 0 0.0 0.0 0.00 0.00 0.00 69 1012.1
20260906020100 86 0 0.0 0.0 0.00 0.00 0.00 68 1012.0
20260906014601 86 0 0.0 0.0 0.00 0.00 0.00 67 1011.8
20260906013107 87 0 0.0 0.0 0.00 0.00 0.00 66 1011.4
20260906011548 88 0 0.0 0.0 0.00 0.00 0.00 65 1011.2
20260906010100 89 0 0.0 0.0 0.00 0.00 0.00 63 1011.3
20260906004556 90 0 0.0 0.0 0.00 0.00 0.00 61 1011.4
20260906003048 92 0 0.0 1.0 0.00 0.00 0.00 59 1011.1
20260906001549 93 0 0.0 0.0 0.00 0.00 0.00 56 1011.1
20260906000048 94 0 0.0 0.0 0.00 0.00 0.00 55 1011.4
20260905234554 95 0 0.0 2.0 0.00 0.00 0.00 53 1011.4
20260905233056 96 0 0.0 3.0 0.00 0.00 0.00 50 1011.1
20260905231550 96 25 0.0 4.0 0.00 0.00 0.00 50 1011.3
20260905230106 96 325 1.0 7.0 0.00 0.00 0.00 50 1011.2
20260905224614 97 5 1.0 4.0 0.00 0.00 0.00 50 1011.4
20260905223052 97 0 1.0 8.0 0.00 0.00 0.00 49 1011.2
20260905221548 98 44 2.0 8.0 0.00 0.00 0.00 49 1011.2
20260905220059 98 109 1.0 4.0 0.00 0.00 0.00 45 1011.3
20260905214558 98 98 2.0 6.0 0.00 0.00 0.00 46 1011.3
20260905213050 99 75 1.0 5.0 0.00 0.00 0.00 45 1011.4
20260905211549 99 352 1.0 8.0 0.00 0.00 0.00 45 1011.5
20260905210101 99 18 3.0 8.0 0.00 0.00 0.00 45 1011.6
20260905204601 100 60 2.0 11.0 0.00 0.00 0.00 45 1011.6
20260905203055 101 59 2.0 9.0 0.00 0.00 0.00 44 1011.9
20260905201549 100 0 1.0 6.0 0.00 0.00 0.00 43 1012.1
20260905200049 100 306 1.0 6.0 0.00 0.00 0.00 44 1012.4
20260905194556 100 344 1.0 5.0 0.00 0.00 0.00 43 1012.5
20260905193050 101 21 1.0 9.0 0.00 0.00 0.00 42 1012.7
20260905191554 100 352 2.0 8.0 0.00 0.00 0.00 44 1012.8
20260905190045 100 345 2.0 6.0 0.00 0.00 0.00 45 1013.1
20260905184600 101 350 2.0 7.0 0.00 0.00 0.00 46 1013.2
20260905183050 100 132 1.0 11.0 0.00 0.00 0.00 46 1013.3
20260905181547 100 119 1.0 6.0 0.00 0.00 0.00 47 1013.5
20260905180104 100 257 1.0 6.0 0.00 0.00 0.00 47 1013.6
20260905174553 100 294 2.0 8.0 0.00 0.00 0.00 47 1013.9
20260905173105 99 352 2.0 8.0 0.00 0.00 0.00 48 1014.0